Regional Weather Roundup
Issued by NWS

Home | Current Version | Previous Version | Text Only | Print | Product List | Glossary Off
Versions: 1 2 3 4 5 6 7 8 9 10 11 12 13 14 15 16 17 18 19 20 21 22 23 24 25 26 27 28 29 30 31 32 33 34 35 36 37 38 39 40 41 42 43 44 45 46 47 48 49 50

000
ASUS43 KLMK 250010
RWRKY
KENTUCKY REGIONAL WEATHER ROUNDUP
NATIONAL WEATHER SERVICE LOUISVILLE KY
800 PM EDT SAT JUN 24 2017

NOTE "FAIR" INDICATES FEW OR NO CLOUDS BELOW 12,000 FEET
WITH NO SIGNIFICANT WEATHER AND/OR OBSTRUCTIONS TO VISIBILITY.

KYZ001>023-026-027-061>063-070>075-250100-
WESTERN AND SOUTH CENTRAL KENTUCKY

CITY           SKY/WX    TMP DP  RH WIND       PRES   REMARKS
PADUCAH        CLOUDY    74  51  44 NW3       30.10R
HENDERSON      PTSUNNY   74  54  49 NW6       30.10R
OWENSBORO      MOSUNNY   74  54  49 NW9       30.09R
HOPKINSVILLE   MOSUNNY   77  56  49 N9        30.09R
BOWLING GREEN  MOSUNNY   77  57  50 VRB7      30.07R
GLASGOW        MOSUNNY   76  57  51 NW3       30.08R
$$

KYZ024-025-028>034-038-045-046-053-250100-
NORTH CENTRAL KENTUCKY

CITY           SKY/WX    TMP DP  RH WIND       PRES   REMARKS
LOUISVILLE/SDF PTSUNNY   76  54  46 NW15      30.05R
LOUISVILLE/LOU MOSUNNY   76  56  49 W9        30.05R
FORT KNOX      MOSUNNY   73  58  58 NW6       30.06R
$$

KYZ035>037-039>044-047>052-055>060-089>105-250100-
NORTHEAST KENTUCKY

CITY           SKY/WX    TMP DP  RH WIND       PRES   REMARKS
LEXINGTON      SUNNY     76  54  46 W8        30.05R
COVINGTON      CLOUDY    73  55  53 W8        30.03R
FRANKFORT      SUNNY     75  54  47 W6        30.04R
$$

KYZ054-064>069-076>088-106>120-250100-
SOUTHEAST KENTUCKY

CITY           SKY/WX    TMP DP  RH WIND       PRES   REMARKS
JACKSON        CLEAR     75  57  53 NW7       30.06R
LONDON         PTCLDY    76  55  48 NW8       30.06R
SOMERSET       SUNNY     75  54  46 NW8       30.08R
MIDDLESBORO    PTCLDY    77  59  53 NW6       30.05R
MONTICELLO     MOCLDY    75  62  64 N13G18    30.09R
$$





USA.gov is the U.S. government's official web portal to all federal, state and local government web resources and services.